LAN166 SCEL-SCDA

Flight info

Callsign LAN166
Flight time 2h 5m
Altitude 34000
Route DONTI5B DONTI UQ802 GAXIR GAXIR4C
Aircraft A321/M-SDE3FGHIRWY/LB1

Departure

Time 2026-05-06 16:26
Airport Comodoro Arturo Merino Benítez International Airport (SCEL)

Arrival

Time 2026-05-06 18:32
Airport Diego Aracena International Airport (SCDA)
Time Latitude Longitude Altitude Speed Heading
2026-05-06 15:42 -33.39589 -70.79219 1565 ft 0 kts 176°
2026-05-06 16:12 -33.39588 -70.79219 1564 ft 2 kts 176°
2026-05-06 16:12 -33.39563 -70.79220 1564 ft 4 kts 177°
2026-05-06 16:13 -33.39536 -70.79222 1564 ft 3 kts 177°
2026-05-06 16:13 -33.39511 -70.79219 1564 ft 4 kts 211°
2026-05-06 16:13 -33.39498 -70.79198 1564 ft 4 kts 267°
2026-05-06 16:13 -33.39499 -70.79166 1564 ft 3 kts 269°
2026-05-06 16:14 -33.39499 -70.79160 1564 ft 0 kts 267°
2026-05-06 16:16 -33.39499 -70.79169 1564 ft 2 kts 268°
2026-05-06 16:16 -33.39500 -70.79193 1564 ft 2 kts 268°
2026-05-06 16:16 -33.39501 -70.79223 1564 ft 5 kts 267°
2026-05-06 16:17 -33.39504 -70.79275 1564 ft 8 kts 266°
2026-05-06 16:17 -33.39507 -70.79348 1564 ft 10 kts 267°
2026-05-06 16:17 -33.39510 -70.79409 1564 ft 5 kts 266°
2026-05-06 16:17 -33.39511 -70.79448 1564 ft 6 kts 268°
2026-05-06 16:18 -33.39514 -70.79509 1564 ft 9 kts 267°
2026-05-06 16:18 -33.39517 -70.79583 1564 ft 8 kts 266°
2026-05-06 16:18 -33.39519 -70.79637 1564 ft 6 kts 266°
2026-05-06 16:18 -33.39522 -70.79697 1564 ft 8 kts 268°
2026-05-06 16:19 -33.39524 -70.79769 1564 ft 9 kts 267°
2026-05-06 16:19 -33.39527 -70.79842 1565 ft 9 kts 267°
2026-05-06 16:19 -33.39529 -70.79919 1565 ft 10 kts 269°
2026-05-06 16:19 -33.39525 -70.80007 1565 ft 11 kts 276°
2026-05-06 16:20 -33.39558 -70.80040 1566 ft 6 kts 185°
2026-05-06 16:20 -33.39606 -70.80039 1566 ft 8 kts 177°
2026-05-06 16:20 -33.39675 -70.80035 1566 ft 11 kts 178°
2026-05-06 16:20 -33.39761 -70.80031 1566 ft 14 kts 177°
2026-05-06 16:21 -33.39862 -70.80023 1566 ft 15 kts 175°
2026-05-06 16:21 -33.39948 -70.80017 1566 ft 10 kts 178°
2026-05-06 16:21 -33.40016 -70.80012 1566 ft 10 kts 176°
2026-05-06 16:21 -33.40102 -70.80007 1566 ft 15 kts 176°
2026-05-06 16:22 -33.40204 -70.79998 1567 ft 14 kts 175°
2026-05-06 16:22 -33.40290 -70.79991 1567 ft 12 kts 175°
2026-05-06 16:22 -33.40387 -70.79982 1566 ft 16 kts 174°
2026-05-06 16:22 -33.40498 -70.79975 1566 ft 15 kts 177°
2026-05-06 16:23 -33.40578 -70.79977 1566 ft 8 kts 202°
2026-05-06 16:23 -33.40591 -70.80022 1567 ft 7 kts 267°
2026-05-06 16:23 -33.40591 -70.80036 1568 ft 0 kts 268°
2026-05-06 16:24 -33.40591 -70.80038 1568 ft 1 kts 268°
2026-05-06 16:24 -33.40592 -70.80072 1570 ft 8 kts 268°
2026-05-06 16:24 -33.40594 -70.80158 1574 ft 7 kts 268°
2026-05-06 16:25 -33.40582 -70.80188 1574 ft 3 kts 342°
2026-05-06 16:25 -33.40563 -70.80192 1574 ft 0 kts 355°
2026-05-06 16:25 -33.40518 -70.80196 1574 ft 31 kts 356°
2026-05-06 16:26 -33.40063 -70.80221 1574 ft 97 kts 357°
2026-05-06 16:26 -33.39204 -70.80268 1573 ft 147 kts 357°
2026-05-06 16:26 -33.38044 -70.80334 1587 ft 184 kts 356°
2026-05-06 16:26 -33.36765 -70.80386 2162 ft 182 kts 356°
2026-05-06 16:27 -33.35485 -70.80458 2749 ft 186 kts 355°
2026-05-06 16:27 -33.34163 -70.80533 3481 ft 190 kts 356°
2026-05-06 16:27 -33.32854 -70.80606 4373 ft 188 kts 355°
2026-05-06 16:27 -33.31517 -70.80679 4716 ft 200 kts 355°
2026-05-06 16:28 -33.30064 -70.80763 4843 ft 218 kts 355°
2026-05-06 16:28 -33.28488 -70.80855 4971 ft 237 kts 356°
2026-05-06 16:28 -33.26753 -70.80955 5151 ft 260 kts 356°
2026-05-06 16:28 -33.24916 -70.81057 5716 ft 267 kts 356°
2026-05-06 16:29 -33.23047 -70.81158 6397 ft 270 kts 356°
2026-05-06 16:29 -33.21158 -70.81262 7073 ft 274 kts 356°
2026-05-06 16:29 -33.19247 -70.81371 7746 ft 276 kts 356°
2026-05-06 16:29 -33.17332 -70.81478 8391 ft 277 kts 356°
2026-05-06 16:30 -33.15394 -70.81585 8982 ft 281 kts 356°
2026-05-06 16:30 -33.14072 -70.81657 9381 ft 282 kts 355°
2026-05-06 16:30 -33.11466 -70.81800 10200 ft 284 kts 355°
2026-05-06 16:30 -33.09426 -70.81914 10381 ft 303 kts 354°
2026-05-06 16:31 -33.07263 -70.82034 10511 ft 320 kts 354°
2026-05-06 16:31 -33.04979 -70.82161 10723 ft 334 kts 354°
2026-05-06 16:31 -33.02644 -70.82346 11223 ft 338 kts 352°
2026-05-06 16:31 -33.00295 -70.82612 11857 ft 339 kts 351°
2026-05-06 16:32 -32.97955 -70.82913 12542 ft 338 kts 350°
2026-05-06 16:32 -32.95648 -70.83404 13146 ft 336 kts 339°
2026-05-06 16:32 -32.93549 -70.84583 13647 ft 334 kts 324°
2026-05-06 16:32 -32.91813 -70.86388 14171 ft 332 kts 309°
2026-05-06 16:33 -32.90555 -70.88690 14768 ft 334 kts 295°
2026-05-06 16:33 -32.89773 -70.91299 15380 ft 335 kts 289°
2026-05-06 16:33 -32.89061 -70.93939 15963 ft 336 kts 289°
2026-05-06 16:34 -32.87629 -70.99238 17113 ft 336 kts 288°
2026-05-06 16:34 -32.86911 -71.01890 17645 ft 338 kts 288°
2026-05-06 16:34 -32.86189 -71.04547 18109 ft 339 kts 288°
2026-05-06 16:34 -32.85461 -71.07219 18648 ft 339 kts 288°
2026-05-06 16:35 -32.84733 -71.09891 19151 ft 340 kts 288°
2026-05-06 16:35 -32.84007 -71.12560 19653 ft 340 kts 288°
2026-05-06 16:35 -32.83014 -71.15111 20114 ft 342 kts 301°
2026-05-06 16:35 -32.81416 -71.17235 20575 ft 350 kts 316°
2026-05-06 16:36 -32.79303 -71.18718 21007 ft 363 kts 332°
2026-05-06 16:36 -32.76786 -71.19370 21453 ft 381 kts 348°
2026-05-06 16:36 -32.74116 -71.19439 21841 ft 385 kts 349°
2026-05-06 16:36 -32.71427 -71.19479 22209 ft 388 kts 349°
2026-05-06 16:37 -32.68723 -71.19513 22615 ft 389 kts 349°
2026-05-06 16:37 -32.66006 -71.19549 23005 ft 391 kts 349°
2026-05-06 16:37 -32.63278 -71.19593 23359 ft 393 kts 348°
2026-05-06 16:37 -32.60538 -71.19642 23641 ft 395 kts 348°
2026-05-06 16:38 -32.57788 -71.19698 23994 ft 397 kts 348°
2026-05-06 16:38 -32.55018 -71.19756 24343 ft 399 kts 348°
2026-05-06 16:38 -32.52238 -71.19808 24706 ft 400 kts 347°
2026-05-06 16:38 -32.49445 -71.19861 25032 ft 402 kts 347°
2026-05-06 16:39 -32.46641 -71.19910 25364 ft 403 kts 347°
2026-05-06 16:39 -32.43833 -71.19959 25717 ft 404 kts 347°
2026-05-06 16:39 -32.41016 -71.20009 26039 ft 406 kts 347°
2026-05-06 16:39 -32.38186 -71.20063 26353 ft 408 kts 347°
2026-05-06 16:40 -32.35348 -71.20115 26630 ft 409 kts 347°
2026-05-06 16:40 -32.32499 -71.20167 26910 ft 410 kts 347°
2026-05-06 16:40 -32.29642 -71.20220 27202 ft 411 kts 347°
2026-05-06 16:40 -32.26773 -71.20270 27440 ft 414 kts 347°
2026-05-06 16:41 -32.23929 -71.20320 27740 ft 415 kts 347°
2026-05-06 16:41 -32.21041 -71.20369 28038 ft 416 kts 347°
2026-05-06 16:41 -32.18148 -71.20414 28331 ft 417 kts 347°
2026-05-06 16:41 -32.15238 -71.20462 28568 ft 419 kts 347°
2026-05-06 16:42 -32.12317 -71.20516 28840 ft 420 kts 347°
2026-05-06 16:42 -32.09386 -71.20573 29090 ft 422 kts 347°
2026-05-06 16:42 -32.06448 -71.20630 29369 ft 423 kts 347°
2026-05-06 16:42 -32.03503 -71.20686 29637 ft 424 kts 347°
2026-05-06 16:43 -32.00552 -71.20740 29883 ft 424 kts 347°
2026-05-06 16:43 -31.97604 -71.20790 30157 ft 424 kts 347°
2026-05-06 16:43 -31.94656 -71.20840 30397 ft 423 kts 347°
2026-05-06 16:43 -31.91724 -71.20889 30699 ft 421 kts 347°
2026-05-06 16:44 -31.88801 -71.20940 30991 ft 420 kts 346°
2026-05-06 16:44 -31.85886 -71.20990 31339 ft 418 kts 346°
2026-05-06 16:44 -31.82985 -71.21040 31701 ft 415 kts 346°
2026-05-06 16:44 -31.80107 -71.21090 32065 ft 412 kts 346°
2026-05-06 16:45 -31.77251 -71.21123 32421 ft 411 kts 346°
2026-05-06 16:45 -31.74384 -71.21046 32739 ft 412 kts 348°
2026-05-06 16:45 -31.71538 -71.20879 33071 ft 412 kts 349°
2026-05-06 16:45 -31.68690 -71.20663 33405 ft 410 kts 349°
2026-05-06 16:46 -31.65854 -71.20440 33712 ft 408 kts 349°
2026-05-06 16:46 -31.63022 -71.20226 33991 ft 406 kts 348°
2026-05-06 16:46 -31.60203 -71.20028 34114 ft 404 kts 348°
2026-05-06 16:47 -31.54638 -71.19677 34115 ft 398 kts 347°
2026-05-06 16:47 -31.49112 -71.19367 34119 ft 397 kts 347°
2026-05-06 16:48 -31.43630 -71.19055 34120 ft 397 kts 347°
2026-05-06 16:48 -31.38110 -71.18722 34119 ft 397 kts 347°
2026-05-06 16:49 -31.32590 -71.18382 34116 ft 398 kts 347°
2026-05-06 16:49 -31.27063 -71.18045 34116 ft 398 kts 347°
2026-05-06 16:50 -31.21532 -71.17713 34121 ft 398 kts 347°
2026-05-06 16:50 -31.16002 -71.17383 34120 ft 398 kts 347°
2026-05-06 16:51 -31.10472 -71.17055 34116 ft 398 kts 347°
2026-05-06 16:51 -31.04936 -71.16723 34112 ft 398 kts 347°
2026-05-06 16:52 -30.99393 -71.16394 34114 ft 400 kts 347°
2026-05-06 16:52 -30.93836 -71.16057 34114 ft 400 kts 347°
2026-05-06 16:53 -30.88269 -71.15723 34119 ft 400 kts 348°
2026-05-06 16:53 -30.82710 -71.15377 34121 ft 400 kts 347°
2026-05-06 16:54 -30.77147 -71.15031 34123 ft 400 kts 347°
2026-05-06 16:54 -30.71593 -71.14700 34124 ft 400 kts 347°
2026-05-06 16:55 -30.66037 -71.14376 34122 ft 400 kts 347°
2026-05-06 16:55 -30.60500 -71.14047 34120 ft 401 kts 348°
2026-05-06 16:56 -30.54940 -71.13707 34123 ft 400 kts 348°
2026-05-06 16:56 -30.49374 -71.13378 34118 ft 401 kts 348°
2026-05-06 16:57 -30.43808 -71.13055 34119 ft 401 kts 348°
2026-05-06 16:57 -30.38228 -71.12722 34107 ft 402 kts 347°
2026-05-06 16:58 -30.32671 -71.12396 34107 ft 402 kts 347°
2026-05-06 16:58 -30.27119 -71.12077 34115 ft 402 kts 348°
2026-05-06 16:59 -30.21517 -71.11699 34119 ft 406 kts 349°
2026-05-06 16:59 -30.15873 -71.11123 34129 ft 408 kts 350°
2026-05-06 17:00 -30.10214 -71.10497 34133 ft 408 kts 350°
2026-05-06 17:00 -30.05485 -71.09962 34131 ft 408 kts 350°
2026-05-06 17:01 -29.99835 -71.09344 34137 ft 407 kts 350°
2026-05-06 17:01 -29.94190 -71.08732 34129 ft 408 kts 350°
2026-05-06 17:02 -29.88540 -71.08114 34124 ft 408 kts 350°
2026-05-06 17:02 -29.82882 -71.07497 34125 ft 408 kts 350°
2026-05-06 17:03 -29.77261 -71.06886 34126 ft 409 kts 350°
2026-05-06 17:03 -29.71597 -71.06269 34124 ft 410 kts 350°
2026-05-06 17:04 -29.65914 -71.05653 34124 ft 410 kts 350°
2026-05-06 17:04 -29.60232 -71.05039 34124 ft 410 kts 350°
2026-05-06 17:05 -29.54553 -71.04422 34118 ft 411 kts 350°
2026-05-06 17:05 -29.48863 -71.03813 34112 ft 411 kts 350°
2026-05-06 17:06 -29.43174 -71.03205 34102 ft 411 kts 350°
2026-05-06 17:06 -29.37475 -71.02590 34102 ft 411 kts 350°
2026-05-06 17:07 -29.31781 -71.01972 34092 ft 411 kts 350°
2026-05-06 17:07 -29.26083 -71.01358 34091 ft 411 kts 350°
2026-05-06 17:08 -29.20391 -71.00745 34087 ft 411 kts 350°
2026-05-06 17:08 -29.14697 -71.00132 34082 ft 411 kts 350°
2026-05-06 17:09 -29.09002 -70.99524 34082 ft 411 kts 350°
2026-05-06 17:09 -29.03303 -70.98914 34079 ft 411 kts 350°
2026-05-06 17:10 -28.97649 -70.98311 34071 ft 411 kts 350°
2026-05-06 17:10 -28.91923 -70.97699 34062 ft 411 kts 350°
2026-05-06 17:11 -28.86260 -70.97091 34061 ft 412 kts 350°
2026-05-06 17:11 -28.80520 -70.96481 34062 ft 412 kts 350°
2026-05-06 17:12 -28.74813 -70.95875 34058 ft 412 kts 350°
2026-05-06 17:12 -28.69108 -70.95271 34054 ft 411 kts 350°
2026-05-06 17:13 -28.63449 -70.94667 34061 ft 412 kts 350°
2026-05-06 17:13 -28.57742 -70.94060 34064 ft 412 kts 350°
2026-05-06 17:14 -28.52037 -70.93453 34057 ft 412 kts 350°
2026-05-06 17:14 -28.46337 -70.92849 34055 ft 412 kts 350°
2026-05-06 17:15 -28.40632 -70.92242 34056 ft 412 kts 350°
2026-05-06 17:15 -28.34921 -70.91633 34056 ft 412 kts 350°
2026-05-06 17:16 -28.29222 -70.91033 34054 ft 412 kts 350°
2026-05-06 17:16 -28.23517 -70.90437 34052 ft 411 kts 350°
2026-05-06 17:17 -28.17817 -70.89834 34050 ft 412 kts 350°
2026-05-06 17:17 -28.12107 -70.89236 34049 ft 412 kts 350°
2026-05-06 17:18 -28.06407 -70.88632 34050 ft 411 kts 350°
2026-05-06 17:18 -28.00705 -70.88031 34036 ft 411 kts 350°
2026-05-06 17:19 -27.95003 -70.87435 34029 ft 412 kts 350°
2026-05-06 17:19 -27.89294 -70.86835 34027 ft 413 kts 350°
2026-05-06 17:20 -27.83571 -70.86233 34026 ft 413 kts 351°
2026-05-06 17:20 -27.77886 -70.85641 34039 ft 413 kts 351°
2026-05-06 17:21 -27.72161 -70.85042 34043 ft 413 kts 351°
2026-05-06 17:21 -27.66441 -70.84443 34031 ft 413 kts 351°
2026-05-06 17:22 -27.60722 -70.83852 34030 ft 413 kts 351°
2026-05-06 17:22 -27.55005 -70.83257 34037 ft 413 kts 351°
2026-05-06 17:23 -27.49288 -70.82666 34026 ft 413 kts 351°
2026-05-06 17:23 -27.43568 -70.82070 34021 ft 413 kts 351°
2026-05-06 17:24 -27.37844 -70.81469 34018 ft 413 kts 351°
2026-05-06 17:24 -27.32114 -70.80877 34020 ft 413 kts 351°
2026-05-06 17:25 -27.26386 -70.80284 34017 ft 413 kts 351°
2026-05-06 17:25 -27.20657 -70.79699 34018 ft 414 kts 351°
2026-05-06 17:26 -27.14923 -70.79099 34014 ft 414 kts 351°
2026-05-06 17:26 -27.09185 -70.78503 34013 ft 414 kts 351°
2026-05-06 17:27 -27.03438 -70.77911 34011 ft 415 kts 351°
2026-05-06 17:27 -26.97692 -70.77321 34010 ft 415 kts 351°
2026-05-06 17:28 -26.91940 -70.76737 34009 ft 415 kts 351°
2026-05-06 17:28 -26.86178 -70.76147 34012 ft 416 kts 352°
2026-05-06 17:29 -26.80413 -70.75543 34011 ft 416 kts 352°
2026-05-06 17:29 -26.74645 -70.74949 34011 ft 416 kts 352°
2026-05-06 17:30 -26.68876 -70.74359 34014 ft 416 kts 352°
2026-05-06 17:30 -26.63080 -70.73646 34013 ft 423 kts 355°
2026-05-06 17:31 -26.57244 -70.72620 34017 ft 425 kts 356°
2026-05-06 17:31 -26.51411 -70.71532 34012 ft 425 kts 356°
2026-05-06 17:32 -26.45581 -70.70503 34014 ft 424 kts 355°
2026-05-06 17:32 -26.39771 -70.69751 34017 ft 417 kts 352°
2026-05-06 17:33 -26.33998 -70.69333 34015 ft 415 kts 350°
2026-05-06 17:33 -26.28229 -70.68925 34016 ft 416 kts 351°
2026-05-06 17:34 -26.22477 -70.68437 34013 ft 418 kts 352°
2026-05-06 17:34 -26.16684 -70.67915 34017 ft 418 kts 352°
2026-05-06 17:35 -26.10892 -70.67393 34014 ft 418 kts 352°
2026-05-06 17:35 -26.05093 -70.66880 34024 ft 418 kts 352°
2026-05-06 17:36 -25.96390 -70.66123 34014 ft 419 kts 352°
2026-05-06 17:36 -25.90576 -70.65611 34022 ft 419 kts 352°
2026-05-06 17:37 -25.84756 -70.65110 34020 ft 420 kts 352°
2026-05-06 17:37 -25.78926 -70.64604 34023 ft 421 kts 353°
2026-05-06 17:38 -25.73085 -70.64089 34026 ft 421 kts 353°
2026-05-06 17:38 -25.67247 -70.63576 34031 ft 421 kts 353°
2026-05-06 17:39 -25.61407 -70.63074 34028 ft 421 kts 353°
2026-05-06 17:39 -25.55564 -70.62564 34027 ft 421 kts 353°
2026-05-06 17:40 -25.49722 -70.62059 34036 ft 421 kts 353°
2026-05-06 17:40 -25.43874 -70.61552 34034 ft 422 kts 353°
2026-05-06 17:41 -25.38026 -70.61045 34032 ft 422 kts 353°
2026-05-06 17:41 -25.32169 -70.60539 34034 ft 422 kts 353°
2026-05-06 17:42 -25.26310 -70.60038 34035 ft 422 kts 353°
2026-05-06 17:42 -25.20448 -70.59536 34036 ft 423 kts 353°
2026-05-06 17:43 -25.14579 -70.59029 34038 ft 423 kts 353°
2026-05-06 17:43 -25.08704 -70.58519 34045 ft 424 kts 353°
2026-05-06 17:44 -25.02833 -70.58017 34047 ft 423 kts 354°
2026-05-06 17:44 -24.96954 -70.57509 34045 ft 424 kts 354°
2026-05-06 17:45 -24.92064 -70.57089 34046 ft 424 kts 354°
2026-05-06 17:45 -24.85185 -70.56508 34055 ft 424 kts 354°
2026-05-06 17:46 -24.79291 -70.56024 34058 ft 423 kts 353°
2026-05-06 17:46 -24.74434 -70.55911 34060 ft 418 kts 349°
2026-05-06 17:47 -24.68623 -70.56042 34060 ft 418 kts 349°
2026-05-06 17:47 -24.62807 -70.56178 34060 ft 418 kts 349°
2026-05-06 17:48 -24.56978 -70.56226 34059 ft 419 kts 350°
2026-05-06 17:48 -24.51133 -70.56242 34060 ft 420 kts 350°
2026-05-06 17:49 -24.45289 -70.56264 34060 ft 420 kts 350°
2026-05-06 17:49 -24.39444 -70.56301 34063 ft 420 kts 350°
2026-05-06 17:50 -24.33590 -70.56341 34064 ft 421 kts 350°
2026-05-06 17:50 -24.27736 -70.56377 34065 ft 421 kts 350°
2026-05-06 17:51 -24.21870 -70.56412 34068 ft 421 kts 351°
2026-05-06 17:51 -24.16006 -70.56445 34070 ft 422 kts 351°
2026-05-06 17:52 -24.10137 -70.56484 34071 ft 422 kts 351°
2026-05-06 17:52 -24.04263 -70.56517 34072 ft 422 kts 351°
2026-05-06 17:53 -23.98392 -70.56559 34071 ft 422 kts 351°
2026-05-06 17:53 -23.92518 -70.56599 34065 ft 423 kts 351°
2026-05-06 17:54 -23.86670 -70.56633 34063 ft 424 kts 351°
2026-05-06 17:54 -23.80773 -70.56669 34065 ft 424 kts 351°
2026-05-06 17:55 -23.74863 -70.56686 34066 ft 425 kts 352°
2026-05-06 17:55 -23.68947 -70.56641 34070 ft 426 kts 352°
2026-05-06 17:56 -23.63021 -70.56595 34071 ft 426 kts 352°
2026-05-06 17:56 -23.57098 -70.56566 34069 ft 426 kts 352°
2026-05-06 17:57 -23.51177 -70.56547 34072 ft 426 kts 352°
2026-05-06 17:57 -23.45260 -70.56520 34071 ft 426 kts 352°
2026-05-06 17:58 -23.39320 -70.56502 34077 ft 427 kts 352°
2026-05-06 17:58 -23.33381 -70.56479 34071 ft 427 kts 352°
2026-05-06 17:59 -23.27433 -70.56450 34071 ft 428 kts 352°
2026-05-06 17:59 -23.21478 -70.56422 34070 ft 428 kts 352°
2026-05-06 18:00 -23.15516 -70.56400 34070 ft 428 kts 352°
2026-05-06 18:00 -23.09556 -70.56373 34070 ft 429 kts 353°
2026-05-06 18:01 -23.03585 -70.56338 34068 ft 429 kts 353°
2026-05-06 18:01 -22.97609 -70.56309 34068 ft 429 kts 353°
2026-05-06 18:02 -22.91626 -70.56286 34067 ft 430 kts 353°
2026-05-06 18:02 -22.85641 -70.56251 34067 ft 431 kts 353°
2026-05-06 18:03 -22.79636 -70.56135 34068 ft 432 kts 354°
2026-05-06 18:03 -22.73626 -70.56000 34069 ft 432 kts 354°
2026-05-06 18:04 -22.67617 -70.55877 34068 ft 432 kts 354°
2026-05-06 18:04 -22.61601 -70.55765 34065 ft 433 kts 354°
2026-05-06 18:05 -22.55603 -70.55653 34063 ft 434 kts 354°
2026-05-06 18:05 -22.49528 -70.55533 34077 ft 433 kts 354°
2026-05-06 18:06 -22.43541 -70.55415 34010 ft 433 kts 354°
2026-05-06 18:06 -22.40535 -70.55356 33755 ft 432 kts 354°
2026-05-06 18:06 -22.37531 -70.55297 33507 ft 432 kts 354°
2026-05-06 18:07 -22.34522 -70.55237 33263 ft 433 kts 354°
2026-05-06 18:07 -22.31513 -70.55181 33012 ft 432 kts 354°
2026-05-06 18:07 -22.28512 -70.55128 32762 ft 431 kts 354°
2026-05-06 18:07 -22.25537 -70.55077 32515 ft 430 kts 355°
2026-05-06 18:08 -22.22554 -70.55022 32262 ft 428 kts 355°
2026-05-06 18:08 -22.19579 -70.54964 32013 ft 427 kts 355°
2026-05-06 18:08 -22.16610 -70.54908 31762 ft 426 kts 355°
2026-05-06 18:08 -22.13653 -70.54851 31511 ft 425 kts 355°
2026-05-06 18:09 -22.10699 -70.54793 31261 ft 424 kts 355°
2026-05-06 18:09 -22.07756 -70.54739 31012 ft 423 kts 355°
2026-05-06 18:09 -22.04819 -70.54686 30761 ft 422 kts 355°
2026-05-06 18:09 -22.01892 -70.54631 30507 ft 420 kts 355°
2026-05-06 18:10 -21.98977 -70.54575 30159 ft 416 kts 355°
2026-05-06 18:10 -21.96092 -70.54519 29649 ft 413 kts 356°
2026-05-06 18:10 -21.93226 -70.54466 29142 ft 410 kts 356°
2026-05-06 18:10 -21.90379 -70.54413 28625 ft 408 kts 356°
2026-05-06 18:11 -21.87548 -70.54097 28116 ft 410 kts
2026-05-06 18:11 -21.84744 -70.53567 27613 ft 408 kts
2026-05-06 18:11 -21.81962 -70.53041 27121 ft 404 kts
2026-05-06 18:11 -21.79206 -70.52517 26640 ft 401 kts
2026-05-06 18:12 -21.76464 -70.52001 26163 ft 398 kts
2026-05-06 18:12 -21.73751 -70.51495 25705 ft 394 kts
2026-05-06 18:12 -21.71060 -70.50994 25251 ft 391 kts
2026-05-06 18:12 -21.68398 -70.50493 24818 ft 387 kts
2026-05-06 18:13 -21.65759 -70.49996 24386 ft 383 kts
2026-05-06 18:13 -21.63149 -70.49507 23946 ft 379 kts
2026-05-06 18:13 -21.60560 -70.49026 23523 ft 376 kts
2026-05-06 18:13 -21.57994 -70.48550 23094 ft 373 kts
2026-05-06 18:14 -21.55453 -70.48080 22668 ft 370 kts
2026-05-06 18:14 -21.52927 -70.47614 22241 ft 366 kts
2026-05-06 18:14 -21.50425 -70.47151 21815 ft 363 kts
2026-05-06 18:14 -21.47946 -70.46689 21390 ft 361 kts
2026-05-06 18:15 -21.45479 -70.46225 20957 ft 359 kts
2026-05-06 18:15 -21.43032 -70.45766 20532 ft 356 kts
2026-05-06 18:15 -21.40605 -70.45309 20103 ft 352 kts
2026-05-06 18:15 -21.38214 -70.44867 19699 ft 346 kts
2026-05-06 18:16 -21.35848 -70.44437 19288 ft 343 kts
2026-05-06 18:16 -21.33510 -70.44005 18889 ft 340 kts
2026-05-06 18:16 -21.31178 -70.43570 18484 ft 338 kts
2026-05-06 18:16 -21.28878 -70.43146 18087 ft 336 kts
2026-05-06 18:17 -21.26580 -70.42714 17694 ft 334 kts
2026-05-06 18:17 -21.24304 -70.42281 17304 ft 332 kts
2026-05-06 18:17 -21.22032 -70.41855 16932 ft 330 kts
2026-05-06 18:17 -21.19769 -70.41438 16553 ft 330 kts
2026-05-06 18:18 -21.17510 -70.41024 16165 ft 328 kts
2026-05-06 18:18 -21.15263 -70.40612 15797 ft 327 kts
2026-05-06 18:18 -21.13022 -70.40199 15430 ft 326 kts
2026-05-06 18:18 -21.10788 -70.39787 15061 ft 325 kts
2026-05-06 18:19 -21.08565 -70.39375 14685 ft 324 kts
2026-05-06 18:19 -21.06353 -70.38965 14317 ft 322 kts
2026-05-06 18:19 -21.04150 -70.38557 13951 ft 320 kts
2026-05-06 18:19 -21.01960 -70.38152 13584 ft 319 kts
2026-05-06 18:20 -20.99783 -70.37749 13216 ft 317 kts
2026-05-06 18:20 -20.97625 -70.37350 12838 ft 316 kts
2026-05-06 18:20 -20.95468 -70.36953 12475 ft 314 kts
2026-05-06 18:20 -20.93331 -70.36559 12102 ft 313 kts
2026-05-06 18:21 -20.91187 -70.36163 11713 ft 311 kts
2026-05-06 18:21 -20.89063 -70.35770 11356 ft 309 kts
2026-05-06 18:21 -20.86957 -70.35381 10986 ft 306 kts
2026-05-06 18:21 -20.84864 -70.34965 10605 ft 305 kts 14°
2026-05-06 18:22 -20.82850 -70.34262 10262 ft 304 kts 19°
2026-05-06 18:22 -20.80867 -70.33508 10174 ft 303 kts 19°
2026-05-06 18:22 -20.78879 -70.32756 10047 ft 303 kts 19°
2026-05-06 18:22 -20.76888 -70.32004 9713 ft 306 kts 19°
2026-05-06 18:23 -20.74895 -70.31253 9275 ft 304 kts 19°
2026-05-06 18:23 -20.72914 -70.30508 8710 ft 301 kts 18°
2026-05-06 18:23 -20.70938 -70.29765 8113 ft 300 kts 18°
2026-05-06 18:23 -20.68958 -70.29023 7554 ft 297 kts 18°
2026-05-06 18:24 -20.67015 -70.28299 7022 ft 293 kts 18°
2026-05-06 18:24 -20.65101 -70.27581 6422 ft 291 kts 18°
2026-05-06 18:24 -20.63230 -70.26881 5917 ft 287 kts 18°
2026-05-06 18:24 -20.61341 -70.26257 5409 ft 282 kts
2026-05-06 18:25 -20.59411 -70.26093 4902 ft 277 kts 358°
2026-05-06 18:25 -20.57486 -70.26111 4406 ft 275 kts 359°
2026-05-06 18:25 -20.55597 -70.26119 4135 ft 263 kts 359°
2026-05-06 18:25 -20.53825 -70.26121 4035 ft 245 kts 358°
2026-05-06 18:26 -20.52171 -70.26122 3898 ft 233 kts 358°
2026-05-06 18:26 -20.50569 -70.26124 3700 ft 228 kts 358°
2026-05-06 18:26 -20.49002 -70.26124 3566 ft 218 kts 358°
2026-05-06 18:26 -20.47546 -70.26123 3501 ft 201 kts 358°
2026-05-06 18:27 -20.46166 -70.26121 3508 ft 197 kts
2026-05-06 18:27 -20.44813 -70.25829 3366 ft 200 kts 21°
2026-05-06 18:27 -20.43651 -70.25037 3122 ft 199 kts 42°
2026-05-06 18:27 -20.42822 -70.23866 2890 ft 198 kts 63°
2026-05-06 18:28 -20.42425 -70.22486 2652 ft 194 kts 84°
2026-05-06 18:28 -20.42479 -70.21083 2413 ft 191 kts 104°
2026-05-06 18:28 -20.42958 -70.19792 2132 ft 182 kts 125°
2026-05-06 18:28 -20.43742 -70.18792 1877 ft 171 kts 143°
2026-05-06 18:29 -20.44688 -70.18134 1673 ft 155 kts 159°
2026-05-06 18:29 -20.45684 -70.17806 1442 ft 146 kts 174°
2026-05-06 18:29 -20.46678 -70.17758 1243 ft 140 kts 186°
2026-05-06 18:29 -20.47645 -70.17814 1037 ft 139 kts 186°
2026-05-06 18:30 -20.48601 -70.17865 850 ft 136 kts 186°
2026-05-06 18:30 -20.49546 -70.17908 681 ft 135 kts 186°
2026-05-06 18:30 -20.50490 -70.17947 529 ft 137 kts 186°
2026-05-06 18:30 -20.51125 -70.17984 396 ft 138 kts 186°
2026-05-06 18:31 -20.52405 -70.18065 177 ft 133 kts 184°
2026-05-06 18:31 -20.52949 -70.18096 176 ft 99 kts 182°
2026-05-06 18:31 -20.53473 -70.18124 175 ft 63 kts 183°
2026-05-06 18:31 -20.53985 -70.18155 175 ft 51 kts 182°
2026-05-06 18:32 -20.54199 -70.18163 175 ft 38 kts 182°
2026-05-06 18:32 -20.54387 -70.18128 176 ft 17 kts 163°
2026-05-06 18:32 -20.54476 -70.18080 175 ft 9 kts 144°
2026-05-06 18:32 -20.54528 -70.18046 175 ft 9 kts 149°
2026-05-06 18:33 -20.54599 -70.18011 174 ft 16 kts 172°
2026-05-06 18:33 -20.54724 -70.18015 174 ft 18 kts 183°
2026-05-06 18:33 -20.54794 -70.18012 175 ft 7 kts 140°
2026-05-06 18:33 -20.54803 -70.17965 174 ft 6 kts 93°
2026-05-06 18:34 -20.54804 -70.17949 174 ft 2 kts 95°
2026-05-06 18:34 -20.54805 -70.17941 174 ft 0 kts 95°